Home   Weather   Marknesse   Past weeks
Flag for Netherlands

Past Weather in Marknesse, Netherlands — Yesterday and Last 2 Weeks

Currently: 43 °F. Passing clouds. (Weather station: Amsterdam Schiphol Airport, Netherlands). See more current weather

Past Weather in Marknesse — Graph

°F

Marknesse Temperature Yesterday

Maximum temperature yesterday: 45 °F (at 2:25 pm)
Minimum temperature yesterday: 37 °F (at 12:25 am)
Average temperature yesterday: 40 °F

High & Low Weather Summary for the Past Weeks

 TemperatureHumidityPressure
High48 °F (Jan 17, 11:55 am)100% (Jan 12, 2:25 am)30.74 "Hg (Jan 12, 2:25 am)
Low32 °F (Jan 18, 4:25 am)61% (Jan 20, 10:25 am)30.09 "Hg (Jan 19, 2:55 pm)
Average41 °F88%30.49 "Hg
* Reported Jan 12 2:25 am — Jan 27 2:55 am, Marknesse. Weather by CustomWeather, © 2022

Note: Actual official high and low records may vary slightly from our data, if they occured in-between our weather recording intervals... More about our weather records

Marknesse Weather History for the Previous 24 Hours

Scroll right to see more
 ConditionsComfort  
Time TempWeatherWind HumidityBarometerVisibility
2:55 am
Thu, Jan 27
43 °FPassing clouds.18 mph81%30.24 "HgN/A
2:25 am43 °FPassing clouds.20 mph81%30.24 "HgN/A
1:55 am45 °FPassing clouds.22 mph76%30.27 "HgN/A
1:25 am45 °FPassing clouds.18 mph76%30.27 "HgN/A
12:55 am45 °FPassing clouds.18 mph76%30.27 "HgN/A
12:25 am43 °FPassing clouds.15 mph87%30.27 "HgN/A
11:55 pm
Wed, Jan 26
43 °FPassing clouds.16 mph81%30.30 "HgN/A
11:25 pm43 °FPartly cloudy.16 mph81%30.33 "HgN/A
10:55 pm43 °FPassing clouds.17 mph81%30.33 "HgN/A
10:25 pm43 °FPassing clouds.17 mph81%30.33 "HgN/A
9:55 pm41 °FPassing clouds.14 mph87%30.33 "HgN/A
9:25 pm41 °FPassing clouds.16 mph87%30.33 "HgN/A
8:55 pm41 °FPassing clouds.16 mph87%30.36 "HgN/A
8:25 pm41 °FPassing clouds.13 mph87%30.36 "HgN/A
7:55 pm43 °FPassing clouds.13 mph87%30.39 "HgN/A
7:25 pm41 °FPassing clouds.13 mph93%30.39 "HgN/A
6:55 pm41 °FPassing clouds.14 mph93%30.39 "Hg6 mi
6:25 pm41 °FPassing clouds.13 mph87%30.39 "HgN/A
5:55 pm43 °FPassing clouds.13 mph87%30.39 "HgN/A
5:25 pm43 °FPassing clouds.12 mph87%30.39 "HgN/A
4:55 pm43 °FPartly sunny.13 mph87%30.39 "HgN/A
4:25 pm45 °FPartly sunny.14 mph81%30.39 "HgN/A
3:55 pm45 °FPartly sunny.12 mph81%30.39 "HgN/A
3:25 pm45 °FMore clouds than sun.9 mph81%30.42 "HgN/A
2:55 pm45 °FOvercast.9 mph81%30.42 "HgN/A
2:25 pm45 °FOvercast.12 mph81%30.42 "HgN/A
1:55 pm43 °FMore clouds than sun.12 mph81%30.42 "HgN/A
12:55 pm43 °FOvercast.9 mph81%30.45 "HgN/A
12:25 pm43 °FOvercast.10 mph76%30.45 "HgN/A
11:55 am41 °FOvercast.9 mph81%30.45 "HgN/A
11:25 am41 °FOvercast.6 mph81%30.45 "Hg6 mi
10:55 am39 °FMostly cloudy.7 mph87%30.45 "Hg6 mi
10:25 am39 °FOvercast.12 mph81%30.45 "Hg6 mi
9:55 am39 °FOvercast.12 mph81%30.45 "Hg5 mi
9:25 am39 °FMostly cloudy.9 mph81%30.45 "Hg4 mi
8:55 am39 °FOvercast.12 mph81%30.45 "Hg4 mi
8:25 am39 °FOvercast.10 mph81%30.45 "Hg4 mi
7:55 am39 °FOvercast.12 mph81%30.45 "Hg6 mi
7:25 am39 °FPassing clouds.13 mph81%30.45 "Hg6 mi
6:55 am39 °FFog.10 mph87%30.45 "Hg5 mi
6:25 am37 °FFog.9 mph87%30.45 "Hg3 mi
5:55 am37 °FFog.10 mph87%30.45 "Hg3 mi
5:25 am37 °FFog.10 mph87%30.45 "Hg3 mi
4:55 am37 °FOvercast.9 mph87%30.45 "Hg4 mi
4:25 am37 °FOvercast.9 mph87%30.45 "Hg4 mi
Weather by CustomWeather, © 2022

See weather overview